Weather History for Kogalniceanu, Romania

Change the Weather History Date:

Saturday, March 2, 2013

  Actual Average Record
Temperature  
Mean Temperature 38 °F -  
Max Temperature 46 °F 50 °F 75 °F (2002)
Min Temperature 30 °F 32 °F 17 °F (2005)
Degree Days  
Heating Degree Days 27    
Moisture  
Dew Point 33 °F    
Average Humidity 86    
Maximum Humidity 93    
Minimum Humidity 57    
Precipitation  
Precipitation 0.00 in - - ()
Sea Level Pressure  
Sea Level Pressure 29.96 in    
Wind  
Wind Speed 7 mph ()    
Max Wind Speed 14 mph    
Max Gust Speed -    
Visibility 5.8 miles    
Events Rain    
Averages and records for this station are not official NWS values.
T = Trace of Precipitation, MM = Missing Value Source: Averaged Metar Reports

Daily Weather History Graph

Daily Weather History Graph

Search for Another Location

Airport:

Trip Planner

Search our weather history database for the weather conditions in past years. The results will help you decide how hot, cold, wet, or windy it might be!

Date:

Astronomy

Mar. 02, 2013 Rise Set
Actual Time 6:41 AM EET 5:55 PM EET
Civil Twilight 6:12 AM EET 6:24 PM EET
Nautical Twilight 5:39 AM EET 6:58 PM EET
Astronomical Twilight 5:05 AM EET 7:32 PM EET
Moon 11:27 PM EET (3/2) 8:43 AM EET (3/2)
Length of Visible Light 12h 11m
Length of Day
11h 13m
Waning Gibbous, 77% of the Moon is Illuminated
Mar 2
Waning Gibbous
Mar 4
Last Quarter
Mar 11
New
Mar 19
First Quarter
Mar 27
Full

Hourly Weather History & Observations

Time (EET) Temp. Windchill Dew Point Humidity Pressure Visibility Wind Dir Wind Speed Gust Speed Precip Events Conditions
12:00 AM 35.6 °F 29.9 °F 33.8 °F 93% 29.89 in - West 6.9 mph - N/A   Clear
12:30 AM 35.6 °F 29.9 °F 33.8 °F 93% 29.89 in - West 6.9 mph - N/A   Clear
1:00 AM 35.6 °F 29.2 °F 32.0 °F 87% 29.89 in - West 8.1 mph - N/A   Clear
1:30 AM 35.6 °F 29.9 °F 33.8 °F 93% 29.89 in - West 6.9 mph - N/A   Clear
2:00 AM 35.6 °F 29.9 °F 33.8 °F 93% 29.89 in - West 6.9 mph - N/A   Clear
2:30 AM 33.8 °F 27.0 °F 32.0 °F 93% 29.89 in - West 8.1 mph - N/A   Clear
3:00 AM 33.8 °F 27.7 °F 32.0 °F 93% 29.89 in - West 6.9 mph - N/A   Clear
3:30 AM 32.0 °F 25.6 °F 30.2 °F 93% 29.89 in - WNW 6.9 mph - N/A   Clear
4:00 AM 32.0 °F 26.4 °F 30.2 °F 93% 29.86 in - NW 5.8 mph - N/A   Clear
4:30 AM 33.8 °F 29.6 °F 32.0 °F 93% 29.86 in - NNE 4.6 mph - N/A   Clear
5:00 AM 35.6 °F 28.6 °F 32.0 °F 87% 29.89 in - North 9.2 mph - N/A   Clear
5:30 AM 33.8 °F 28.6 °F 32.0 °F 93% 29.89 in - North 5.8 mph - N/A   Clear
6:00 AM 35.6 °F 32.8 °F 32.0 °F 87% 29.89 in - NW 3.5 mph - N/A   Clear
6:30 AM 32.0 °F 25.6 °F 30.2 °F 93% 29.89 in - North 6.9 mph - N/A   Clear
7:00 AM 33.8 °F 26.4 °F 32.0 °F 93% 29.89 in - North 9.2 mph - N/A   Clear
7:30 AM 35.6 °F 28.0 °F 32.0 °F 87% 29.89 in - North 10.4 mph - N/A   Clear
8:00 AM 37.4 °F 30.3 °F 33.8 °F 87% 29.89 in - NNE 10.4 mph - N/A   Clear
8:30 AM 39.2 °F 31.6 °F 33.8 °F 81% 29.92 in - North 12.7 mph - N/A   Clear
9:00 AM 41.0 °F 33.9 °F 33.8 °F 76% 29.92 in - NNE 12.7 mph - N/A   Clear
9:30 AM 42.8 °F 36.6 °F 33.8 °F 70% 29.92 in - NNE 11.5 mph - N/A   Clear
10:00 AM 42.8 °F 37.5 °F 33.8 °F 70% 29.92 in - North 9.2 mph - N/A   Clear
10:30 AM 44.6 °F 39.7 °F 32.0 °F 61% 29.92 in - North 9.2 mph - N/A   Clear
11:00 AM 44.6 °F 39.7 °F 33.8 °F 66% 29.95 in - NNE 9.2 mph - N/A   Clear
11:30 AM 46.4 °F 42.9 °F 33.8 °F 62% 29.95 in 6.2 mi NNE 6.9 mph - N/A   Partly Cloudy
12:00 PM 46.4 °F 42.9 °F 32.0 °F 57% 29.95 in 6.2 mi North 6.9 mph - N/A   Scattered Clouds
12:30 PM 46.4 °F 43.5 °F 33.8 °F 62% 29.95 in 6.2 mi North 5.8 mph - N/A   Mostly Cloudy
1:00 PM 44.6 °F 40.2 °F 33.8 °F 66% 29.95 in 6.2 mi NW 8.1 mph - N/A Rain Light Rain
1:30 PM 42.8 °F 37.0 °F 37.4 °F 81% 29.95 in 6.2 mi NNW 10.4 mph - N/A Rain Light Rain
2:00 PM 42.8 °F 37.0 °F 35.6 °F 76% 29.95 in 6.2 mi NNW 10.4 mph - N/A Rain Light Rain
2:30 PM 42.8 °F 37.0 °F 35.6 °F 76% 29.98 in 6.2 mi NNW 10.4 mph - N/A Rain Light Rain
3:00 PM 41.0 °F 34.3 °F 35.6 °F 81% 29.98 in 6.2 mi NW 11.5 mph - N/A Rain Light Rain
3:30 PM 39.2 °F 31.2 °F 33.8 °F 81% 29.98 in 6.2 mi NW 13.8 mph - N/A Rain Light Rain
4:00 PM 37.4 °F 30.3 °F 35.6 °F 93% 30.01 in 6.2 mi NW 10.4 mph - N/A Rain Light Rain
4:30 PM 37.4 °F 31.4 °F 35.6 °F 93% 30.01 in 6.2 mi WNW 8.1 mph - N/A   Scattered Clouds
5:00 PM 37.4 °F 32.1 °F 35.6 °F 93% 30.01 in 6.2 mi West 6.9 mph - N/A   Partly Cloudy
5:30 PM 37.4 °F 31.4 °F 35.6 °F 93% 30.01 in - West 8.1 mph - N/A   Clear
6:00 PM 37.4 °F 32.1 °F 35.6 °F 93% 30.04 in - West 6.9 mph - N/A   Clear
6:30 PM 37.4 °F 32.8 °F 35.6 °F 93% 30.04 in - West 5.8 mph - N/A   Clear
7:00 PM 37.4 °F 32.8 °F 35.6 °F 93% 30.04 in - WSW 5.8 mph - N/A   Clear
7:30 PM 35.6 °F 29.9 °F 33.8 °F 93% 30.06 in - West 6.9 mph - N/A   Clear
8:00 PM 35.6 °F 29.2 °F 33.8 °F 93% 30.06 in - West 8.1 mph - N/A   Clear
8:30 PM 35.6 °F 29.9 °F 33.8 °F 93% 30.06 in - West 6.9 mph - N/A   Clear
9:00 PM 33.8 °F 27.7 °F 32.0 °F 93% 30.09 in - West 6.9 mph - N/A   Clear
9:30 PM 33.8 °F 27.7 °F 32.0 °F 93% 30.09 in 5.0 mi WNW 6.9 mph - N/A   Unknown
10:00 PM 32.0 °F 25.6 °F 30.2 °F 93% 30.09 in 5.0 mi West 6.9 mph - N/A   Unknown
10:30 PM 32.0 °F 25.6 °F 30.2 °F 93% 30.12 in 5.0 mi WNW 6.9 mph - N/A   Unknown
11:00 PM 30.2 °F 23.4 °F 28.4 °F 93% 30.12 in 5.0 mi WNW 6.9 mph - N/A   Unknown
11:30 PM 30.2 °F 23.4 °F 28.4 °F 93% 30.12 in 5.0 mi WNW 6.9 mph - N/A   Unknown